Regional Weather Roundup
Issued by NWS

Home | Current Version | Previous Version | Graphics & Text | Print | Product List | Glossary On
Versions: 1 2 3 4 5 6 7 8 9 10 11 12 13 14 15 16 17 18 19 20 21 22 23 24 25 26 27 28 29 30 31 32 33 34 35 36 37 38 39 40 41 42 43 44 45 46 47 48 49 50
689
ASUS43 KOAX 131102
RWRNE

WEATHER ROUNDUP FOR NEBRASKA
NATIONAL WEATHER SERVICE OMAHA NE
500 AM CST SAT FEB 13 2016

NOTES: SATELLITE DATA IS BEING USED TO AUGMENT CLOUD COVER ABOVE
       12000 FEET.
       "FAIR" INDICATES FEW OR NO CLOUDS BELOW 12,000 FEET WITH NO
       SIGNIFICANT WEATHER AND/OR OBSTRUCTIONS TO VISIBILITY.

  * THESE STATIONS DO NOT REPORT WEATHER SUCH AS RAIN...SNOW OR FOG.

NEZ001>004-019>022-054>056-131200-
NEBRASKA PANHANDLE

CITY           SKY/WX    TMP DP  RH WIND       PRES   REMARKS
SCOTTSBLUFF    CLOUDY    31  29  92 SE10      30.11F WCI  22
ALLIANCE       CLOUDY    30  29  96 S16       30.12F FOG     WCI  19
CHADRON        CLOUDY    34  29  82 S13       30.10F WCI  25
SIDNEY         FOG       30  30 100 S15       30.14F VSB 1   WCI  19
$$

NEZ057>060-069>072-079>082-131200-
SOUTHWEST NEBRASKA

CITY           SKY/WX    TMP DP  RH WIND       PRES   REMARKS
NORTH PLATTE   CLOUDY    22  18  85 SE13      30.32F WCI  10
IMPERIAL       CLOUDY    28  26  92 S16       30.26F WCI  16
MCCOOK         CLOUDY    23  21  92 SE13      30.36F FOG     WCI  11
$$

NEZ005>010-023>029-035>040-094-131200-
NORTH CENTRAL NEBRASKA

CITY           SKY/WX    TMP DP  RH WIND       PRES   REMARKS
VALENTINE      CLOUDY    22  18  85 SE14      30.29F WCI   9
AINSWORTH      CLOUDY    20  16  84 SE14      30.33S WCI   7
BROKEN BOW     CLOUDY    18  14  84 SE13G22   30.38F WCI   5
ORD            CLOUDY    16   6  65 SE10      30.43F WCI   4
$$

NEZ041-046>049-061>064-073>077-083>087-131200-
SOUTH CENTRAL NEBRASKA

CITY           SKY/WX    TMP DP  RH WIND       PRES   REMARKS
GRAND ISLAND   CLOUDY    15   7  70 SE12      30.50F WCI   2
HASTINGS       CLOUDY    16   8  71 SE10      30.47F WCI   4
HEBRON         CLOUDY    18  10  70 E9        30.54F WCI   6
KEARNEY *      CLOUDY    18  12  79 SE13      30.44F WCI   4
$$

NEZ011>018-030>034-042>045-131200-
NORTHEAST NEBRASKA

CITY           SKY/WX    TMP DP  RH WIND       PRES   REMARKS
NORFOLK        CLOUDY    11   2  67 SE8       30.52F WCI  -1
BLAIR          CLOUDY     9   0  66 NE6       30.58F WCI   0
COLUMBUS *     CLOUDY    12  -2  52 E6        30.56F WCI   3
FREMONT        CLOUDY     9  -3  58 CALM      30.60S
TEKAMAH        CLOUDY     7  -3  64 SE3       30.63S
$$

NEZ050>053-065>068-078-088>093-131200-
SOUTHEAST NEBRASKA

CITY           SKY/WX    TMP DP  RH WIND       PRES   REMARKS
LINCOLN        CLOUDY    15   5  64 NE8       30.60F WCI   4
OMAHA EPPLEY   CLOUDY    10  -1  61 E7        30.63F WCI  -1
BEATRICE       CLOUDY    17   6  63 E6        30.57R WCI   8
FALLS CITY     CLOUDY    15   3  59 NE7       30.61S WCI   5
NEBRASKA CITY  CLOUDY    13   1  58 NE6       30.60S WCI   3
$$

NEZ044-045-051>053-067-131200-
OMAHA AREA

CITY           SKY/WX    TMP DP  RH WIND       PRES   REMARKS
OMAHA EPPLEY   CLOUDY    10  -1  61 E7        30.63F WCI  -1
BLAIR          CLOUDY     9   0  66 NE6       30.58F WCI   0
FREMONT        CLOUDY     9  -3  58 CALM      30.60S
OFFUTT AFB     CLOUDY    10  -1  61 E3        30.61F
WAHOO          CLOUDY    11   2  66 NE3       30.60F
$$




USA.gov is the U.S. government's official web portal to all federal, state and local government web resources and services.